Watsonville, CA

10:02 PM PDT on September 28, 2016 (GMT -0700)
Watsonville Municipal

Weather History for KWVI - May, 2013

Change the Weather History Date:

Saturday, May 4, 2013

  Actual Average Record
Temperature  
Mean Temperature 56 °F 58 °F  
Max Temperature 67 °F 69 °F 85 °F (2011)
Min Temperature 44 °F 47 °F 41 °F (2002)
Degree Days  
Heating Degree Days 9    
Month to date heating degree days 18  
Since 1 July heating degree days 2770  
Cooling Degree Days 0    
Month to date cooling degree days 6  
Year to date cooling degree days 6  
Growing Degree Days 6 (Base 50)    
Moisture  
Dew Point 48 °F    
Average Humidity 77    
Maximum Humidity 96    
Minimum Humidity 58    
Precipitation  
Precipitation 0.00 in - 0.65 in (1956)
Month to date precipitation 0.00  
Year to date precipitation 2.34  
Since 1 July precipitation 13.28  
Sea Level Pressure  
Sea Level Pressure 29.74 in    
Wind  
Wind Speed 7 mph (WSW)    
Max Wind Speed 17 mph    
Max Gust Speed 26 mph    
Visibility 8 miles    
Events Fog    
T = Trace of Precipitation, MM = Missing Value Source: NWS Daily Summary

Daily Weather History Graph

Daily Weather History Graph

Search for Another Location

Airport or City:

Trip Planner

Search our weather history database for the weather conditions in past years. The results will help you decide how hot, cold, wet, or windy it might be!

Date:

Astronomy

May. 04, 2013 Rise Set
Actual Time 6:09 AM PDT 7:59 PM PDT
Civil Twilight 5:41 AM PDT 8:27 PM PDT
Nautical Twilight 5:07 AM PDT 9:01 PM PDT
Astronomical Twilight 4:30 AM PDT 9:37 PM PDT
Moon 3:03 AM PDT (5/4) 3:09 PM PDT (5/4)
Length of Visible Light 14h 46m
Length of Day
13h 49m
Waning Crescent, 26% of the Moon is Illuminated
May 4
Waning Crescent
May 9
New
May 17
First Quarter
May 24
Full
May 31
Last Quarter

Hourly Weather History & Observations

Time (PDT) Temp. Dew Point Humidity Pressure Visibility Wind Dir Wind Speed Gust Speed Precip Events Conditions
12:53 AM 52.0 °F 46.0 °F 80% 29.82 in 10.0 mi Calm Calm - N/A   Clear
1:53 AM 51.1 °F 43.0 °F 74% 29.79 in 10.0 mi NW 3.5 mph - N/A   Clear
2:53 AM 46.9 °F 42.1 °F 83% 29.77 in 10.0 mi Calm Calm - N/A   Clear
3:53 AM 48.9 °F 39.9 °F 71% 29.76 in 10.0 mi Calm Calm - N/A   Clear
4:53 AM 48.9 °F 43.0 °F 80% 29.76 in 10.0 mi NNW 3.5 mph - N/A   Clear
5:53 AM 48.0 °F 41.0 °F 77% 29.77 in 10.0 mi Calm Calm - N/A   Clear
6:53 AM 48.0 °F 39.9 °F 74% 29.77 in 10.0 mi Calm Calm - N/A   Clear
7:19 AM 51.8 °F 42.8 °F 71% 29.77 in 10.0 mi Calm Calm - N/A   Scattered Clouds
7:39 AM 51.8 °F 48.2 °F 88% 29.76 in 1.5 mi Calm Calm - N/A   Scattered Clouds
7:41 AM 51.8 °F 48.2 °F 88% 29.76 in 0.8 mi Calm Calm - N/A   Mist
7:49 AM 51.8 °F 48.2 °F 88% 29.76 in 0.2 mi Calm Calm - N/A Fog Fog
7:53 AM 51.1 °F 50.0 °F 96% 29.77 in 0.2 mi Calm Calm - N/A Fog Fog
8:04 AM 51.8 °F 48.2 °F 88% 29.76 in 1.0 mi Calm Calm - N/A   Overcast
8:06 AM 51.8 °F 48.2 °F 88% 29.76 in 2.5 mi Calm Calm - N/A   Overcast
8:25 AM 51.8 °F 50.0 °F 94% 29.76 in 3.0 mi Calm Calm - N/A   Overcast
8:53 AM 55.0 °F 50.0 °F 83% 29.75 in 8.0 mi SE 3.5 mph - N/A   Scattered Clouds
9:53 AM 60.1 °F 50.0 °F 69% 29.74 in 10.0 mi Calm Calm - N/A   Clear
10:53 AM 63.0 °F 51.1 °F 65% 29.74 in 10.0 mi South 4.6 mph - N/A   Clear
11:53 AM 66.0 °F 51.1 °F 59% 29.72 in 10.0 mi South 11.5 mph - N/A   Clear
12:53 PM 59.0 °F 50.0 °F 72% 29.75 in 10.0 mi SW 13.8 mph - N/A   Scattered Clouds
12:58 PM 59.0 °F 50.0 °F 72% 29.75 in 10.0 mi SW 9.2 mph 18.4 mph N/A   Mostly Cloudy
1:17 PM 59.0 °F 50.0 °F 72% 29.75 in 10.0 mi WSW 12.7 mph - N/A   Overcast
1:53 PM 57.0 °F 50.0 °F 77% 29.74 in 8.0 mi SW 10.4 mph - N/A   Overcast
2:53 PM 59.0 °F 50.0 °F 72% 29.72 in 10.0 mi SW 11.5 mph - N/A   Overcast
3:53 PM 57.0 °F 50.0 °F 77% 29.71 in 10.0 mi WSW 9.2 mph 18.4 mph N/A   Overcast
4:53 PM 57.0 °F 48.9 °F 74% 29.70 in 10.0 mi SW 10.4 mph - N/A   Overcast
5:53 PM 55.9 °F 48.9 °F 77% 29.69 in 10.0 mi SW 11.5 mph - N/A   Overcast
6:53 PM 54.0 °F 48.9 °F 83% 29.69 in 10.0 mi WSW 11.5 mph - N/A   Overcast
7:53 PM 54.0 °F 48.9 °F 83% 29.69 in 10.0 mi WSW 10.4 mph - N/A   Overcast
8:53 PM 53.1 °F 48.0 °F 83% 29.69 in 10.0 mi West 9.2 mph 17.3 mph N/A   Overcast
9:53 PM 53.1 °F 48.0 °F 83% 29.69 in 10.0 mi West 15.0 mph 23.0 mph N/A   Overcast
10:53 PM 53.1 °F 48.0 °F 83% 29.69 in 10.0 mi WNW 11.5 mph 23.0 mph N/A   Overcast
11:53 PM 53.1 °F 48.0 °F 83% 29.69 in 10.0 mi West 10.4 mph 18.4 mph N/A   Mostly Cloudy